[[{"header":{"parameterUnit":"m.s-1","parameterCategory":1,"la1":30.2991,"la2":30.254,"lo1":-89.0895,"lo2":-89.0444,"dy":0.0017,"dx":0.0017,"nx":28,"ny":28,"refTime":"2024-03-18T03:00:00:Z","depth":0,"parameterNumber":2,"parameterNumberName":"U-component_of_WINDS"},"data":[0,0,0,0,0,0,0,0,0,0,0,0,0,0,0,0,0,0,0,0,0,0,0,0,0,0,0,0,0,0,0,0,0,0,0,0,0,0,0,0,0,0,0,0,0,0,0,0,0,0,0,0,0,0,0,0,0,0,3.4285,3.4286,0,3.4371,3.4372,3.4373,3.4352,3.435,3.4348,3.4347,3.4432,3.4435,3.4439,0,0,0,0,0,0,0,0,0,0,0,0,0,3.4099,3.4102,3.4285,3.4286,3.4287,3.4371,3.4372,3.4373,3.4352,3.435,3.4348,3.4346,3.443,3.4435,3.4439,0,0,0,0,0,0,0,0,0,0,0,0,0,3.4182,3.4103,3.4285,3.4287,3.4288,3.4371,3.4372,3.4373,3.4352,3.435,3.4347,3.4345,3.4429,3.4434,3.444,3.4525,0,0,3.4457,3.446,0,0,0,0,0,0,0,0,3.4177,3.4188,3.4286,3.4287,3.4288,3.4348,3.4337,3.4424,3.4353,3.4328,3.4347,3.4344,3.4406,3.4413,3.4434,3.4529,3.4533,3.4458,3.4461,3.4464,3.4465,0,0,0,0,0,0,0,3.4171,3.4185,3.4319,3.4287,3.4289,3.4282,3.4291,3.4354,3.4379,3.433,3.4329,3.4339,3.4406,3.4429,3.4436,3.4534,3.4458,3.4463,3.4466,3.4469,3.4698,3.4701,0,0,0,0,0,0,3.4165,3.418,3.4316,3.4321,3.4225,3.4287,3.4297,3.4331,3.4379,3.4384,3.4341,3.4338,3.4421,3.443,3.4439,3.4539,3.4464,3.4469,3.4472,3.4696,3.4699,3.4702,0,0,0,0,0,0,3.4161,3.4177,3.4313,3.425,3.4267,3.4293,3.4331,3.4334,3.4357,3.4387,3.4391,3.436,3.4419,3.4431,3.4503,3.4541,3.4472,3.4477,3.4693,3.4697,3.47,3.474,0,0,0,0,0,0,3.4156,3.4176,3.421,3.4251,3.4271,3.4377,3.4334,3.4338,3.4368,3.4364,3.4406,3.4411,3.4418,3.4495,3.4509,3.4548,3.4481,3.4689,3.4694,3.4699,3.4735,3.4745,3.4753,0,0,0,0,0,3.4149,3.4217,3.4211,3.4228,3.4313,3.4379,3.439,3.4397,3.4371,3.4404,3.4423,3.441,3.4536,3.4502,3.4518,3.4559,3.4687,3.4693,3.4699,3.4731,3.4743,3.4753,0,0,0,0,0,0,3.4179,3.4223,3.4217,3.4301,3.4336,3.4375,3.4417,3.441,3.4453,3.4447,3.4454,3.4463,3.4536,3.4556,3.4518,3.4642,3.4607,3.4617,3.4627,3.4638,3.4647,3.4639,3.4486,0,0,0,0,0,3.4195,3.4246,3.4282,3.4352,3.4371,3.4391,3.442,3.4422,3.4459,3.4473,3.4498,3.4533,3.458,3.461,3.4656,3.4739,3.4746,3.4775,3.4784,3.4791,3.4798,3.484,3.4852,3.4722,3.4722,3.4722,0,0,3.4229,3.426,3.4292,3.4359,3.4387,3.4437,3.4404,3.4459,3.4496,3.4482,3.455,3.4569,3.4609,3.4686,3.4721,3.4704,3.4836,3.4799,3.4804,3.4808,3.4848,3.486,3.4871,3.4726,3.4725,3.4724,0,0,3.4317,3.4347,3.4407,3.4435,3.4478,3.4491,3.4506,3.4546,3.4557,3.4627,3.4616,3.466,3.4742,3.4769,3.4794,3.489,3.4878,3.4905,3.495,3.4991,3.5001,3.501,3.5041,3.5052,3.4913,3.4913,3.4913,0,3.4353,3.443,3.4439,3.4495,3.4523,3.4514,3.4573,3.4601,3.4655,3.4674,3.4655,3.4756,3.4782,3.4864,3.4887,3.4909,3.4923,3.4899,3.4999,3.5009,3.5017,3.5046,3.5058,3.4916,3.4915,3.4915,3.4915,0,3.4471,3.4524,3.4568,3.4621,3.4655,3.4713,3.4728,3.4762,3.4761,3.4776,3.4845,3.4876,3.4925,3.4946,3.4947,3.5027,3.5015,3.4998,3.4962,3.5032,3.5059,3.5071,3.4919,3.4918,3.4918,3.4917,0,0,3.4578,3.4635,3.465,3.4673,3.4719,3.4759,3.4816,3.4865,3.4892,3.493,3.4975,3.5044,3.5028,3.5056,3.506,3.5096,3.5166,3.5074,3.5075,3.5087,3.5252,3.5262,3.5275,3.516,3.5162,3.5164,3.5248,0,3.4666,3.4766,3.4775,3.4863,3.4911,3.4902,3.4951,3.4983,3.4998,3.5039,3.5056,3.5103,3.508,3.5096,3.5132,3.515,3.5199,3.5145,3.5199,3.5201,3.5186,3.529,3.5301,3.5379,3.5259,3.5261,3.5262,0,3.4782,3.4823,3.4917,3.4954,3.4974,3.5018,3.5062,3.5103,3.5138,3.5147,3.5177,3.5176,3.5231,3.5196,3.5271,3.5233,3.5257,3.5268,3.5272,3.5274,3.5233,3.5292,3.5404,3.5414,3.528,3.5279,3.5277,0,3.4846,3.4925,3.499,3.5011,3.5057,3.5087,3.5107,3.514,3.5169,3.5208,3.5225,3.5271,3.5294,3.5328,3.5338,3.5312,3.5411,3.5377,3.5417,3.5416,3.5435,3.5433,3.5549,3.5457,3.5456,3.5456,3.5456,0,3.4941,3.4998,3.5019,3.5059,3.5121,3.5131,3.5191,3.521,3.524,3.5281,3.5278,3.5316,3.5328,3.5369,3.5377,3.5435,3.5447,3.5453,3.5454,3.5452,3.545,3.5464,3.5458,3.5459,3.5459,3.5458,3.5457,0,3.5021,3.5039,3.5108,3.5146,3.5157,3.5201,3.5232,3.5269,3.5284,3.5336,3.5349,3.5371,3.5418,3.5432,3.5489,3.5494,3.5562,3.556,3.555,3.5548,3.5586,3.558,3.5712,3.5728,3.5628,3.5629,3.563,0,3.5079,3.5123,3.5165,3.5193,3.5214,3.526,3.5288,3.5299,3.5329,3.5372,3.5403,3.545,3.5488,3.5563,3.5583,3.5626,3.5622,3.5665,3.5629,3.5624,3.5618,3.5614,3.5617,3.5671,3.5672,3.5673,3.5674,0,3.5179,3.5185,3.5227,3.5272,3.5306,3.5342,3.5376,3.5399,3.5414,3.5448,3.5496,3.5525,3.5583,3.5628,3.5672,3.5691,3.5684,3.5686,3.5696,3.5692,3.5683,3.5685,3.5564,3.5682,3.5681,3.568,3.568,3.568,3.5248,3.5284,3.5319,3.5365,3.5392,3.5424,3.546,3.5479,3.5519,3.5567,3.5572,3.5623,3.5655,3.5713,3.5734,3.5773,3.576,3.5777,3.578,3.5783,3.5784,3.568,3.5782,3.5782,3.5781,3.5781,3.5781,0,3.5344,3.5366,3.5409,3.5456,3.5492,3.5484,3.5521,3.5551,3.5596,3.5628,3.5665,3.5719,3.5763,3.5787,3.583,3.5856,3.5854,3.5867,3.5863,3.5867,3.5795,3.578,3.5868,3.5868,3.5868,3.5868,3.5868,3.5868,3.5398,3.5459,3.5469,3.5542,3.5563,3.5614,3.5635,3.5663,3.5688,3.5749,3.5785,3.5801,3.5828,3.5873,3.5912,3.5918,3.5932,3.5946,3.5949,3.5881,3.5872,3.5864,3.5849,3.595,3.595,3.6017,3.6017,3.6018]},{"header":{"parameterUnit":"m.s-1","parameterCategory":1,"la1":30.2991,"la2":30.254,"lo1":-89.0895,"lo2":-89.0444,"dy":0.0017,"dx":0.0017,"nx":28,"ny":28,"refTime":"2024-03-18T03:00:00:Z","depth":0,"parameterNumber":3,"parameterNumberName":"V-component_of_WINDS"},"data":[0,0,0,0,0,0,0,0,0,0,0,0,0,0,0,0,0,0,0,0,0,0,0,0,0,0,0,0,0,0,0,0,0,0,0,0,0,0,0,0,0,0,0,0,0,0,0,0,0,0,0,0,0,0,0,0,0,0,1.697,1.697,0,1.6992,1.6992,1.6992,1.6978,1.6977,1.6976,1.6976,1.6998,1.6999,1.7,0,0,0,0,0,0,0,0,0,0,0,0,0,1.6913,1.6914,1.697,1.697,1.697,1.6992,1.6992,1.6992,1.6978,1.6977,1.6976,1.6975,1.6997,1.6999,1.7,0,0,0,0,0,0,0,0,0,0,0,0,0,1.6937,1.6914,1.697,1.6966,1.6965,1.6992,1.6992,1.6992,1.6978,1.6977,1.6976,1.6975,1.6997,1.6999,1.7,1.7032,0,0,1.7006,1.7007,0,0,0,0,0,0,0,0,1.6935,1.6939,1.6966,1.6966,1.6966,1.6981,1.698,1.7006,1.6978,1.6973,1.6976,1.6975,1.6993,1.6995,1.7001,1.7033,1.7034,1.7006,1.7007,1.7008,1.7009,0,0,0,0,0,0,0,1.6934,1.6938,1.6978,1.6966,1.6966,1.6962,1.6964,1.6985,1.6988,1.6974,1.6973,1.6975,1.6993,1.7,1.7002,1.7034,1.7006,1.7008,1.7009,1.701,1.709,1.7091,0,0,0,0,0,0,1.6933,1.6936,1.6978,1.6979,1.6948,1.6964,1.6966,1.6977,1.6988,1.6989,1.6976,1.6975,1.6997,1.7,1.7003,1.7039,1.7008,1.701,1.7011,1.7089,1.7091,1.7092,0,0,0,0,0,0,1.6931,1.6936,1.6977,1.6957,1.6962,1.6966,1.6978,1.6978,1.6985,1.699,1.6991,1.6983,1.6996,1.7,1.7024,1.7039,1.7011,1.7012,1.7088,1.709,1.7091,1.7112,0,0,0,0,0,0,1.693,1.6936,1.6948,1.6958,1.6963,1.6999,1.6979,1.6979,1.6988,1.6986,1.6996,1.6997,1.6996,1.7022,1.7026,1.7041,1.7014,1.7087,1.7089,1.7091,1.711,1.7114,1.7118,0,0,0,0,0,1.6928,1.6954,1.6949,1.6954,1.6979,1.7,1.7003,1.7001,1.699,1.7002,1.7005,1.6997,1.7037,1.7024,1.7029,1.7045,1.7086,1.7088,1.7091,1.7108,1.7113,1.7118,0,0,0,0,0,0,1.6946,1.6955,1.695,1.698,1.6989,1.6997,1.7013,1.7007,1.7019,1.7017,1.7014,1.7016,1.7041,1.7046,1.7031,1.7075,1.706,1.7063,1.7071,1.7076,1.708,1.7078,1.7015,0,0,0,0,0,1.6954,1.697,1.6977,1.7002,1.7007,1.7009,1.7018,1.7016,1.7025,1.7029,1.7034,1.7043,1.7057,1.7067,1.7081,1.7111,1.7112,1.7124,1.7128,1.7131,1.7134,1.7148,1.7153,1.71,1.71,1.71,0,0,1.6969,1.6976,1.6987,1.7006,1.7013,1.7029,1.7012,1.7031,1.7043,1.7032,1.7055,1.7059,1.7068,1.7095,1.7107,1.71,1.7149,1.7134,1.7136,1.7138,1.7151,1.7157,1.7161,1.7101,1.7101,1.7101,0,0,1.7006,1.7013,1.7035,1.7042,1.7052,1.7053,1.7058,1.7067,1.7069,1.7092,1.7084,1.7098,1.7123,1.713,1.7137,1.7175,1.7168,1.7179,1.7199,1.7214,1.7218,1.7222,1.7234,1.7239,1.7182,1.7182,1.7182,0,1.7024,1.7049,1.7046,1.7065,1.7073,1.7064,1.7085,1.7092,1.7106,1.7112,1.7103,1.7134,1.714,1.7168,1.7177,1.7183,1.7188,1.7178,1.7217,1.7221,1.7225,1.7236,1.7241,1.7184,1.7184,1.7183,1.7183,0,1.707,1.7087,1.7103,1.7116,1.7127,1.7146,1.7146,1.7157,1.7153,1.7155,1.7177,1.7184,1.7199,1.7205,1.7202,1.7232,1.7227,1.7218,1.7202,1.7231,1.7242,1.7247,1.7186,1.7185,1.7185,1.7184,0,0,1.7119,1.713,1.7136,1.7142,1.7152,1.7165,1.7184,1.7198,1.7206,1.7216,1.7231,1.7252,1.7244,1.7252,1.7249,1.7262,1.729,1.7251,1.7251,1.7257,1.7322,1.7328,1.7333,1.7285,1.7286,1.7287,1.7321,0,1.7155,1.7188,1.7186,1.7217,1.7232,1.7222,1.7239,1.7246,1.7248,1.7261,1.7262,1.7277,1.7265,1.727,1.7282,1.7284,1.7303,1.7282,1.7298,1.7299,1.7295,1.7339,1.7346,1.7377,1.7325,1.7326,1.7326,0,1.7202,1.7213,1.7245,1.7252,1.7259,1.7273,1.7285,1.7298,1.7306,1.7306,1.7314,1.7309,1.7327,1.7311,1.7335,1.7321,1.7328,1.733,1.7331,1.7332,1.7314,1.734,1.7387,1.7392,1.7333,1.7333,1.7332,0,1.7233,1.7257,1.7278,1.7284,1.7293,1.7303,1.7307,1.7314,1.7322,1.7332,1.7337,1.735,1.7356,1.7366,1.7364,1.7353,1.7388,1.7372,1.7388,1.7388,1.7396,1.7395,1.7443,1.7401,1.7401,1.7401,1.7401,0,1.7274,1.7293,1.7292,1.7306,1.7327,1.7324,1.7345,1.7348,1.7354,1.7367,1.736,1.7373,1.737,1.7382,1.7381,1.74,1.7404,1.7404,1.7403,1.7404,1.7404,1.7408,1.7405,1.7402,1.7402,1.7402,1.7402,0,1.7312,1.7312,1.7335,1.7341,1.7343,1.7359,1.7364,1.7376,1.7377,1.7393,1.7397,1.7398,1.7412,1.7411,1.7427,1.7426,1.745,1.7447,1.7447,1.7446,1.7462,1.746,1.7514,1.752,1.7475,1.7475,1.7476,0,1.7337,1.7352,1.736,1.7368,1.7373,1.7386,1.7394,1.7392,1.74,1.741,1.7421,1.7434,1.7444,1.7466,1.7468,1.748,1.7477,1.7495,1.7478,1.7478,1.7476,1.7474,1.7475,1.7498,1.7498,1.7499,1.7499,0,1.7382,1.7381,1.7393,1.7405,1.7414,1.7423,1.7431,1.7439,1.7437,1.7446,1.746,1.7468,1.7484,1.7497,1.7507,1.7511,1.7504,1.7504,1.7508,1.7509,1.7508,1.7508,1.7455,1.7503,1.7503,1.7502,1.7502,1.7502,1.7414,1.7426,1.7433,1.7446,1.7452,1.7459,1.7471,1.7473,1.7484,1.7497,1.7494,1.751,1.7516,1.753,1.7535,1.7546,1.754,1.7546,1.7547,1.7549,1.755,1.7507,1.7548,1.7548,1.7548,1.7548,1.7548,0,1.7457,1.7461,1.7473,1.7484,1.7494,1.7487,1.7496,1.7504,1.7518,1.7525,1.7535,1.755,1.7562,1.7565,1.7576,1.7585,1.7582,1.7588,1.7587,1.7587,1.7556,1.755,1.759,1.759,1.759,1.759,1.759,1.759,1.7481,1.75,1.75,1.7522,1.7526,1.7541,1.7546,1.7552,1.7558,1.7575,1.7585,1.7587,1.7591,1.7603,1.7613,1.7614,1.7618,1.7624,1.7624,1.7594,1.759,1.7586,1.7581,1.7626,1.7626,1.7654,1.7654,1.7655]}]]